This demonstration page uses our WeatherBlox Daily Observations layout. Learn more.

Left ArrowRight Arrow

Hourly Observations for July 25, 2021

Temp ( °F °C ) Dew Point ( °F °C ) Humidity (%) Winds ( mph kmh ) Pressure ( in mb ) Visibility ( mi km ) Precip ( " mm )
12:56 am 00:56 Clear 75 23.9 72 22.2 90 90 N 5 7 30.01 1016 9 14 0.00 0.00
1:56 am 01:56 Mostly Cloudy 73 22.8 71 21.7 94 94 ENE 6 9 30.01 1016 7 11 0.00 0.00
2:56 am 02:56 Partly Cloudy with Nearby Thunderstorms 72 22.2 71 21.7 97 97 ENE 5 7 30.00 1016 5 8 0.00 0.00
3:56 am 03:56 Cloudy with Thunderstorms 74 23.3 72 22.2 94 94 SSE 3 6 30.00 1016 4 6 0.01 0.25
4:15 am 04:15 Cloudy with Mist and Fog 73 23 72 22 94 94 S 7 11 29.96 1015 4 6 0.01 0.25
4:24 am 04:24 Cloudy with Thunderstorms 73 23 72 22 94 94 S 9 15 29.95 1014 6 10 0.01 0.25
4:56 am 04:56 Mostly Cloudy with Nearby Thunderstorms 75 23.9 72 22.2 90 90 ESE 9 15 29.97 1015 7 11 0.01 0.25
5:08 am 05:08 Partly Cloudy with Nearby Thunderstorms 73 23 72 22 94 94 ESE 10 17 29.93 1014 5 8 0.01 0.25
5:19 am 05:19 Partly Cloudy with Mist and Fog 73 23 72 22 94 94 ENE 10 17 29.92 1013 6 10 0.01 0.25
5:56 am 05:56 Clear 74 23.3 71 21.7 91 91 Calm 29.98 1015 10 16 0.01 0.25
6:56 am 06:56 Partly Cloudy 73 22.8 71 21.7 94 94 SSE 5 7 30.01 1016 7 11 0.00 0.00
7:56 am 07:56 Sunny 72 22.2 70 21.1 94 94 S 5 7 30.03 1017 10 16 0.01 0.25
8:56 am 08:56 Mostly Sunny 71 21.7 69 20.6 94 94 ESE 9 15 30.03 1017 10 16 0.00 0.00
9:56 am 09:56 Partly Cloudy 70 21.1 68 20 93 93 Calm 30.07 1018 10 16 0.00 0.00
10:56 am 10:56 Sunny 70 21.1 68 20 93 93 S 7 11 30.06 1018 10 16 0.00 0.00
11:56 am 11:56 Sunny 70 21.1 67 19.4 90 90 S 9 15 30.09 1019 10 16 0.00 0.00
12:56 pm 12:56 Sunny 70 21.1 64 17.8 82 82 S 8 13 30.07 1018 10 16 0.00 0.00
1:56 pm 13:56 Sunny 72 22.2 63 17.2 73 73 S 8 13 30.06 1018 10 16 0.00 0.00
2:56 pm 14:56 Sunny 73 22.8 62 16.7 69 69 SSW 7 11 30.05 1018 10 16 0.00 0.00
3:56 pm 15:56 Hazy 76 24.4 61 16.1 60 60 SSW 7 11 30.02 1017 6 10 0.00 0.00
4:56 pm 16:56 Sunny 78 25.6 64 17.8 62 62 VRB 3 6 29.99 1016 10 16 0.00 0.00
5:56 pm 17:56 Sunny 78 25.6 64 17.8 62 62 VRB 6 9 29.99 1016 10 16 0.00 0.00
6:56 pm 18:56 Sunny 78 25.6 65 18.3 64 64 S 6 9 29.98 1015 10 16 0.00 0.00
7:56 pm 19:56 Sunny 77 25 67 19.4 71 71 S 5 7 29.97 1015 10 16 0.00 0.00
8:56 pm 20:56 Sunny 72 22.2 67 19.4 84 84 SSE 3 6 29.99 1016 10 16 0.00 0.00
9:56 pm 21:56 Clear 69 20.6 65 18.3 87 87 SE 7 11 30.02 1017 10 16 0.00 0.00
10:56 pm 22:56 Clear 66 18.9 64 17.8 93 93 S 7 11 30.04 1017 10 16 0.00 0.00
11:56 pm 23:56 Clear 68 20 64 17.8 87 87 SSW 3 6 30.04 1017 10 16 0.00 0.00

Powered by AerisWeather